{"data":{"norad_id":63293,"epoch":"2026-09-22T21:52:04.378656Z","epoch_age_seconds":100230,"freshness":"FRESH","line1":"1 63293U 25055C   26265.91116179  .00005188  00000+0  30610-3 0  9990","line2":"2 63293  97.6635  46.6604 0042231 164.0483 196.2088 15.11237323 83828","mean_motion":15.11237323,"eccentricity":0.0042231,"inclination_deg":97.6635,"raan_deg":46.6604,"arg_perigee_deg":164.0483,"mean_anomaly_deg":196.2088,"bstar":0.0003061,"rev_number":8382,"period_min":95.286159101829,"perigee_km":503.24142391219,"apogee_km":561.60941622457,"semimajor_km":6910.5624200684,"source":"CELESTRAK","updated_at":"2026-09-23T09:00:21.956131Z"}}